Tracking 20083 objects as of 10-Dec-2019
HD Live streaming from Space Station
objects crossing your sky now

PSLV DEB

Track PSLV DEB now!
10-day predictions


NORAD ID: 27347
Int'l Code: 2001-049LU
Perigee: 449.8 km
Apogee: 477.2 km
Inclination: 97.3 °
Period: 93.7 minutes
Semi major axis: 6834 km
RCS: 0.0003 m2 (small)
Launch date: October 22, 2001
Source: India (IND)
Launch site: SRIHARIKOTA (SRI)

Note: This is SATELLITE DEBRIS
aabbcc
Your satellite tracking list
Your tracking list is empty




NASA's NSSDC Master Catalog

Two Line Element Set (TLE):
1 27347U 01049LU  12289.08094326 +.00019808 +00000-0 +55340-3 0  9997
2 27347 097.2939 333.6498 0020057 233.2478 072.1477 15.36532568769401
Source of the keplerian elements: AFSPC